KC4YLE Weather Reports


time (UTC)temp
C
wind
direction
speed
KPH
gust
KPH
rain 1hr
cm
rain 24hr
cm
rain mn
cm
humidity
%
barometer
mb
20260510162539 28 74 1.6 4.8 0.00 0.00 0.00 41 1015.0
20260510162104 28 349 0.0 6.4 0.00 0.00 0.00 39 1015.1
20260510161546 28 162 1.6 6.4 0.00 0.00 0.00 39 1015.1
20260510161029 28 148 0.0 8.0 0.00 0.00 0.00 43 1015.1
20260510160536 28 20 1.6 8.0 0.00 0.00 0.00 46 1015.1
20260510160041 27 244 0.0 3.2 0.00 0.00 0.00 49 1015.1
20260510155524 27 245 0.0 12.9 0.00 0.00 0.00 45 1015.1
20260510155029 27 78 3.2 12.9 0.00 0.00 0.00 42 1015.1
20260510154532 27 59 1.6 8.0 0.00 0.00 0.00 45 1015.2
20260510154035 27 49 1.6 8.0 0.00 0.00 0.00 49 1015.2
20260510153536 27 229 0.0 3.2 0.00 0.00 0.00 48 1015.1
20260510153041 27 141 0.0 3.2 0.00 0.00 0.00 50 1015.2
20260510152544 27 45 0.0 8.0 0.00 0.00 0.00 51 1015.2
20260510152026 27 44 0.0 8.0 0.00 0.00 0.00 51 1015.2
20260510151550 27 87 1.6 8.0 0.00 0.00 0.00 45 1015.3
20260510151033 27 62 0.0 8.0 0.00 0.00 0.00 47 1015.3
20260510150536 26 131 0.0 4.8 0.00 0.00 0.00 48 1015.3
20260510150025 26 331 0.0 4.8 0.00 0.00 0.00 52 1015.3
20260510145528 26 51 0.0 4.8 0.00 0.00 0.00 53 1015.3
20260510145032 25 49 0.0 6.4 0.00 0.00 0.00 52 1015.3
20260510144556 25 128 1.6 6.4 0.00 0.00 0.00 51 1015.2
20260510144040 25 11 1.6 8.0 0.00 0.00 0.00 52 1015.2
20260510143523 25 80 1.6 6.4 0.00 0.00 0.00 52 1015.2
20260510143027 25 40 0.0 6.4 0.00 0.00 0.00 55 1015.2
20260510142532 25 97 0.0 3.2 0.00 0.00 0.00 55 1015.3
20260510142036 24 97 0.0 8.0 0.00 0.00 0.00 55 1015.2
20260510141601 24 97 1.6 8.0 0.00 0.00 0.00 57 1015.2
20260510141104 24 36 0.0 3.2 0.00 0.00 0.00 57 1015.2
20260510140526 23 265 0.0 3.2 0.00 0.00 0.00 58 1015.3
20260510140030 23 225 0.0 3.2 0.00 0.00 0.00 59 1015.2
20260510135539 23 81 0.0 1.6 0.00 0.00 0.00 66 1015.3
20260510135023 22 81 0.0 1.6 0.00 0.00 0.00 63 1015.1
20260510134527 22 81 0.0 1.6 0.00 0.00 0.00 67 1015.2
20260510134031 22 81 0.0 1.6 0.00 0.00 0.00 69 1015.2
20260510133555 21 81 0.0 1.6 0.00 0.00 0.00 75 1015.1
20260510133037 21 81 0.0 4.8 0.00 0.00 0.00 74 1015.2
20260510132601 20 81 0.0 4.8 0.00 0.00 0.00 78 1015.2
20260510132023 20 81 0.0 6.4 0.00 0.00 0.00 81 1015.2
20260510131547 19 275 0.0 0.0 0.00 0.00 0.00 85 1015.2
20260510131030 18 275 0.0 3.2 0.00 0.00 0.00 87 1015.1
20260510130535 18 275 0.0 1.6 0.00 0.00 0.00 90 1015.0
20260510130037 18 279 0.0 4.8 0.00 0.00 0.00 91 1014.9
20260510125541 17 279 0.0 4.8 0.00 0.00 0.00 92 1014.8
20260510125028 17 248 0.0 3.2 0.00 0.00 0.00 93 1014.8
20260510124531 17 248 0.0 3.2 0.00 0.00 0.00 93 1014.8
20260510124034 17 247 0.0 0.0 0.00 0.00 0.00 93 1014.8
20260510123538 17 247 0.0 0.0 0.00 0.00 0.00 94 1014.7
20260510123043 16 247 0.0 0.0 0.00 0.00 0.00 94 1014.7
20260510122526 16 247 0.0 0.0 0.00 0.00 0.00 94 1014.5
20260510122031 16 247 0.0 0.0 0.00 0.00 0.00 94 1014.5
20260510121534 15 247 0.0 0.0 0.00 0.00 0.00 94 1014.4
20260510121039 15 247 0.0 0.0 0.00 0.00 0.00 94 1014.3
20260510120542 14 247 0.0 0.0 0.00 0.00 0.00 93 1014.3
20260510120027 13 247 0.0 0.0 0.00 0.00 0.00 93 1014.2
20260510115534 13 247 0.0 0.0 0.00 0.00 0.00 92 1014.1
20260510115039 13 247 0.0 0.0 0.00 0.00 0.00 92 1014.2
20260510114543 13 247 0.0 0.0 0.00 0.00 0.00 92 1014.2
20260510114026 13 247 0.0 0.0 0.00 0.00 0.00 92 1014.2
20260510113550 13 247 0.0 0.0 0.00 0.00 0.00 92 1014.0
20260510113034 13 247 0.0 0.0 0.00 0.00 0.00 92 1013.9
20260510112538 13 247 0.0 0.0 0.00 0.00 0.00 92 1013.8
20260510112101 13 247 0.0 0.0 0.00 0.00 0.00 92 1013.7
20260510111525 13 247 0.0 0.0 0.00 0.00 0.00 92 1013.5
20260510111028 13 247 0.0 0.0 0.00 0.00 0.00 92 1013.4
20260510110533 13 247 0.0 0.0 0.00 0.00 0.00 92 1013.3
20260510110036 13 247 0.0 0.0 0.00 0.00 0.00 92 1013.2
20260510105525 13 247 0.0 0.0 0.00 0.00 0.00 92 1013.1
20260510105049 13 247 0.0 0.0 0.00 0.00 0.00 92 1013.0
20260510104532 13 247 0.0 0.0 0.00 0.00 0.00 92 1013.0
20260510104035 13 247 0.0 0.0 0.00 0.00 0.00 92 1013.0
20260510103539 13 247 0.0 0.0 0.00 0.00 0.00 92 1012.9
20260510103023 13 247 0.0 0.0 0.00 0.00 0.00 92 1012.8
20260510102526 13 247 0.0 0.0 0.00 0.00 0.00 92 1012.8
20260510102031 13 247 0.0 0.0 0.00 0.00 0.00 92 1012.7
20260510101534 13 247 0.0 0.0 0.00 0.00 0.00 92 1012.6
20260510101058 13 247 0.0 0.0 0.00 0.00 0.00 92 1012.6
20260510100541 13 247 0.0 0.0 0.00 0.00 0.00 92 1012.7
20260510100024 13 247 0.0 0.0 0.00 0.00 0.00 91 1012.6
20260510095548 13 247 0.0 0.0 0.00 0.00 0.00 91 1012.6
20260510095031 13 247 0.0 0.0 0.00 0.00 0.00 91 1012.6
20260510094540 13 247 0.0 0.0 0.00 0.00 0.00 91 1012.4
20260510094042 13 247 0.0 0.0 0.00 0.00 0.00 91 1012.3
20260510093527 13 247 0.0 0.0 0.00 0.00 0.00 91 1012.3
20260510093031 13 247 0.0 0.0 0.00 0.00 0.00 91 1012.3
20260510092533 13 247 0.0 0.0 0.00 0.00 0.00 91 1012.2
20260510092037 13 247 0.0 0.0 0.00 0.00 0.00 91 1012.2
20260510091540 13 247 0.0 0.0 0.00 0.00 0.00 91 1012.1
20260510091024 13 247 0.0 0.0 0.00 0.00 0.00 91 1012.1
20260510090528 13 247 0.0 0.0 0.00 0.00 0.00 91 1012.0
20260510090053 13 247 0.0 0.0 0.00 0.00 0.00 91 1012.0
20260510085536 13 247 0.0 0.0 0.00 0.00 0.00 91 1011.9
20260510085023 13 247 0.0 0.0 0.00 0.00 0.00 91 1012.0
20260510084527 13 247 0.0 0.0 0.00 0.00 0.00 91 1012.0
20260510084031 13 247 0.0 0.0 0.00 0.00 0.00 91 1012.0
20260510083535 13 247 0.0 0.0 0.00 0.00 0.00 91 1011.8
20260510083039 13 247 0.0 0.0 0.00 0.00 0.00 90 1011.8
20260510082542 13 247 0.0 0.0 0.00 0.00 0.00 91 1011.9
20260510082026 13 247 0.0 0.0 0.00 0.00 0.00 91 1011.9
20260510081529 13 247 0.0 0.0 0.00 0.00 0.00 91 1011.7
20260510081033 14 247 0.0 0.0 0.00 0.00 0.00 91 1011.6
20260510080558 14 247 0.0 0.0 0.00 0.00 0.00 91 1011.6
20260510080040 14 247 0.0 0.0 0.00 0.00 0.00 90 1011.5
20260510075525 14 247 0.0 0.0 0.00 0.00 0.00 90 1011.6
20260510075032 14 247 0.0 0.0 0.00 0.00 0.00 90 1011.6
20260510074536 14 247 0.0 0.0 0.00 0.00 0.00 90 1011.6
20260510074041 14 247 0.0 0.0 0.00 0.00 0.00 90 1011.6
20260510073523 14 247 0.0 0.0 0.00 0.00 0.00 91 1011.4
20260510073026 14 247 0.0 0.0 0.00 0.00 0.00 91 1011.3
20260510072530 14 247 0.0 0.0 0.00 0.00 0.00 91 1011.3
20260510072053 14 247 0.0 0.0 0.00 0.00 0.00 91 1011.3
20260510071555 14 247 0.0 0.0 0.00 0.00 0.00 91 1011.3
20260510071038 14 247 0.0 0.0 0.00 0.00 0.00 90 1011.2
20260510070542 14 247 0.0 0.0 0.00 0.00 0.00 90 1011.3
20260510070045 14 247 0.0 0.0 0.00 0.00 0.00 90 1011.3
20260510065529 14 247 0.0 0.0 0.00 0.00 0.00 90 1011.3
20260510065032 14 247 0.0 0.0 0.00 0.00 0.00 90 1011.3
20260510064535 14 247 0.0 0.0 0.00 0.00 0.00 90 1011.4
20260510064024 14 247 0.0 0.0 0.00 0.00 0.00 90 1011.3
20260510063527 14 247 0.0 0.0 0.00 0.00 0.00 90 1011.3
20260510063031 14 247 0.0 0.0 0.00 0.00 0.00 90 1011.4
20260510062535 14 247 0.0 0.0 0.00 0.00 0.00 90 1011.3
20260510062059 14 247 0.0 0.0 0.00 0.00 0.00 90 1011.3
20260510061603 14 247 0.0 0.0 0.00 0.00 0.00 90 1011.3
20260510061044 14 247 0.0 0.0 0.00 0.00 0.00 90 1011.3
20260510060527 14 247 0.0 0.0 0.00 0.00 0.00 90 1011.3
20260510060031 14 247 0.0 0.0 0.00 0.00 0.00 90 1011.4
20260510055535 14 247 0.0 0.0 0.00 0.00 0.00 90 1011.5
20260510055040 15 247 0.0 0.0 0.00 0.00 0.00 90 1011.6
20260510054543 15 247 0.0 0.0 0.00 0.00 0.00 90 1011.7
20260510054027 15 247 0.0 0.0 0.00 0.00 0.00 90 1011.7
20260510053536 15 247 0.0 0.0 0.00 0.00 0.00 90 1011.8
20260510053039 15 247 0.0 0.0 0.00 0.00 0.00 90 1011.8
20260510052523 15 247 0.0 0.0 0.00 0.00 0.00 89 1011.8
20260510052026 15 247 0.0 0.0 0.00 0.00 0.00 89 1011.8
20260510051530 15 247 0.0 0.0 0.00 0.00 0.00 89 1011.8
20260510051034 15 247 0.0 0.0 0.00 0.00 0.00 89 1011.8
20260510050538 15 247 0.0 0.0 0.00 0.00 0.00 89 1011.8
20260510050041 15 247 0.0 0.0 0.00 0.00 0.00 89 1012.0
20260510045546 15 247 0.0 0.0 0.00 0.00 0.00 89 1011.9
20260510045029 15 247 0.0 0.0 0.00 0.00 0.00 89 1011.8
20260510044533 15 247 0.0 0.0 0.00 0.00 0.00 89 1011.9
20260510044036 15 247 0.0 0.0 0.00 0.00 0.00 89 1011.9
20260510043524 15 247 0.0 0.0 0.00 0.00 0.00 89 1011.9
20260510043028 15 247 0.0 0.0 0.00 0.00 0.00 89 1011.9
20260510042533 15 247 0.0 0.0 0.00 0.00 0.00 88 1011.8
20260510042037 15 247 0.0 0.0 0.00 0.00 0.00 88 1011.8
20260510041541 15 247 0.0 0.0 0.00 0.00 0.00 88 1011.7
20260510041045 15 247 0.0 0.0 0.00 0.00 0.00 88 1011.7
20260510040527 15 247 0.0 0.0 0.00 0.00 0.00 88 1011.8
20260510040032 15 247 0.0 0.0 0.00 0.00 0.00 88 1011.8
20260510035556 15 247 0.0 0.0 0.00 0.00 0.00 88 1011.7
20260510035038 15 247 0.0 0.0 0.00 0.00 0.00 88 1011.8
20260510034542 15 247 0.0 0.0 0.00 0.00 0.00 87 1011.8
20260510034047 15 247 0.0 0.0 0.00 0.00 0.00 87 1011.9
20260510033529 15 247 0.0 0.0 0.00 0.00 0.00 87 1011.9
20260510033053 15 247 0.0 0.0 0.00 0.00 0.00 87 1011.8
20260510032541 15 247 0.0 0.0 0.00 0.00 0.00 87 1011.8
20260510032026 15 247 0.0 0.0 0.00 0.00 0.00 86 1011.8
20260510031551 16 247 0.0 0.0 0.00 0.00 0.00 86 1011.8
20260510031034 16 247 0.0 0.0 0.00 0.00 0.00 86 1011.7
20260510030538 16 247 0.0 0.0 0.00 0.00 0.00 86 1011.7
20260510030042 16 247 0.0 0.0 0.00 0.00 0.00 86 1011.7
20260510025525 16 247 0.0 0.0 0.00 0.00 0.00 86 1011.7
20260510025049 16 247 0.0 0.0 0.00 0.00 0.00 86 1011.6
20260510024532 16 247 0.0 0.0 0.00 0.00 0.00 86 1011.6
20260510024036 16 247 0.0 0.0 0.00 0.00 0.00 86 1011.6
20260510023540 16 247 0.0 0.0 0.00 0.00 0.00 86 1011.5
20260510023025 16 247 0.0 0.0 0.00 0.00 0.00 85 1011.6
20260510022549 16 247 0.0 0.0 0.00 0.00 0.00 85 1011.6
20260510022036 16 247 0.0 0.0 0.00 0.00 0.00 84 1011.6
20260510021541 16 247 0.0 0.0 0.00 0.00 0.00 83 1011.5
20260510021046 17 247 0.0 0.0 0.00 0.00 0.00 83 1011.5
20260510020530 17 247 0.0 0.0 0.00 0.00 0.00 83 1011.5
20260510020033 17 247 0.0 0.0 0.00 0.00 0.00 83 1011.4
20260510015537 17 247 0.0 0.0 0.00 0.00 0.00 83 1011.4
20260510015040 17 247 0.0 0.0 0.00 0.00 0.00 83 1011.3
20260510014525 17 247 0.0 0.0 0.00 0.00 0.00 83 1011.2
20260510014030 17 247 0.0 0.0 0.00 0.00 0.00 82 1011.0
20260510013555 17 247 0.0 0.0 0.00 0.00 0.00 82 1010.9
20260510013038 17 247 0.0 0.0 0.00 0.00 0.00 82 1010.8
20260510012523 18 247 0.0 0.0 0.00 0.00 0.00 82 1010.8
20260510012048 18 247 0.0 0.0 0.00 0.00 0.00 81 1010.6
20260510011535 18 247 0.0 0.0 0.00 0.00 0.00 80 1010.5
20260510011040 18 247 0.0 0.0 0.00 0.00 0.00 80 1010.4
20260510010524 18 247 0.0 0.0 0.00 0.00 0.00 79 1010.3
20260510010026 18 247 0.0 0.0 0.00 0.00 0.00 79 1010.4
20260510005531 18 247 0.0 0.0 0.00 0.00 0.00 79 1010.3
20260510005035 19 247 0.0 0.0 0.00 0.00 0.00 79 1010.3
20260510004540 19 247 0.0 0.0 0.00 0.00 0.00 78 1010.3
20260510004104 19 247 0.0 0.0 0.00 0.00 0.00 78 1010.3
20260510003527 19 247 0.0 0.0 0.00 0.00 0.00 78 1010.2
20260510003032 20 247 0.0 0.0 0.00 0.00 0.00 77 1010.2
20260510002537 20 247 0.0 0.0 0.00 0.00 0.00 77 1010.3
20260510002024 20 247 0.0 0.0 0.00 0.00 0.00 76 1010.3
20260510001528 20 247 0.0 0.0 0.00 0.00 0.00 76 1010.1
20260510001032 20 247 0.0 0.0 0.00 0.00 0.00 75 1010.1
20260510000533 20 247 0.0 0.0 0.00 0.00 0.00 76 1010.1
20260510000036 20 247 0.0 0.0 0.00 0.00 0.00 75 1010.0
20260509235600 20 247 0.0 0.0 0.00 0.00 0.00 75 1010.1
20260509235024 21 247 0.0 0.0 0.00 0.00 0.00 75 1009.9
20260509234527 21 247 0.0 0.0 0.00 0.00 0.00 74 1009.7
20260509234032 21 247 0.0 0.0 0.00 0.00 0.00 73 1009.6
20260509233536 21 247 0.0 1.6 0.00 0.00 0.00 73 1009.6
20260509233100 21 247 0.0 6.4 0.00 0.00 0.00 73 1009.6
20260509232542 21 247 0.0 6.4 0.00 0.00 0.00 72 1009.6
20260509232047 21 131 0.0 4.8 0.00 0.00 0.00 71 1009.5
20260509231551 21 253 0.0 0.0 0.00 0.00 0.00 71 1009.5
20260509231034 21 253 0.0 3.2 0.00 0.00 0.00 71 1009.4
20260509230543 21 253 0.0 6.4 0.00 0.00 0.00 70 1009.3
20260509230026 21 254 0.0 6.4 0.00 0.00 0.00 70 1009.2
20260509225551 21 225 0.0 6.4 0.00 0.00 0.00 70 1009.2
20260509225055 22 235 0.0 6.4 0.00 0.00 0.00 69 1009.1
20260509224538 22 257 0.0 6.4 0.00 0.00 0.00 69 1009.1
20260509224043 22 133 1.6 9.7 0.00 0.00 0.00 69 1009.1
20260509223526 22 175 1.6 9.7 0.00 0.00 0.00 69 1009.0
20260509223031 22 58 1.6 9.7 0.00 0.00 0.00 69 1009.2
20260509222535 22 113 3.2 9.7 0.00 0.00 0.00 69 1009.1
20260509222040 22 146 0.0 6.4 0.00 0.00 0.00 69 1009.2
20260509221524 22 242 1.6 6.4 0.00 0.00 0.00 68 1009.2
20260509221029 22 245 1.6 8.0 0.00 0.00 0.00 67 1009.2
20260509220536 22 107 0.0 12.9 0.00 0.00 0.00 67 1009.2
20260509220040 22 183 0.0 12.9 0.00 0.00 0.00 67 1009.2
20260509215524 22 137 1.6 9.7 0.00 0.00 0.00 67 1009.3
20260509215029 22 147 1.6 14.5 0.00 0.00 0.00 66 1009.2
20260509214534 23 319 3.2 14.5 0.00 0.00 0.00 66 1009.0
20260509214039 23 192 1.6 11.3 0.00 0.00 0.00 66 1009.1
20260509213523 23 180 1.6 12.9 0.00 0.00 0.00 66 1009.2
20260509213047 23 38 1.6 12.9 0.00 0.00 0.00 66 1009.1
20260509212531 23 248 1.6 11.3 0.00 0.00 0.00 65 1009.1
20260509212036 23 314 3.2 11.3 0.00 0.00 0.00 65 1009.1
20260509211541 23 291 1.6 11.3 0.00 0.00 0.00 64 1009.1
20260509211029 23 166 1.6 12.9 0.00 0.00 0.00 64 1008.9
20260509210533 23 204 1.6 12.9 0.00 0.00 0.00 64 1008.7
20260509210038 23 51 3.2 9.7 0.00 0.00 0.00 65 1008.7
20260509205542 23 216 3.2 9.7 0.00 0.00 0.00 65 1008.9
20260509205027 23 102 0.0 16.1 0.00 0.00 0.00 67 1009.0
20260509204552 23 115 4.8 16.1 0.00 0.00 0.00 66 1009.1
20260509204034 23 311 3.2 11.3 0.00 0.00 0.00 66 1009.0
20260509203539 22 223 0.0 8.0 0.00 0.00 0.00 67 1008.9
20260509203103 22 257 1.6 11.3 0.00 0.00 0.00 68 1008.9
20260509202527 22 235 1.6 11.3 0.00 0.00 0.00 70 1009.2
20260509202031 22 348 1.6 9.7 0.00 0.00 0.00 69 1009.2
20260509201536 22 309 1.6 9.7 0.00 0.00 0.00 69 1009.3
20260509201023 22 232 0.0 6.4 0.00 0.00 0.00 69 1009.2
20260509200548 22 186 3.2 6.4 0.00 0.00 0.00 68 1009.2
20260509200032 22 251 1.6 8.0 0.00 0.00 0.00 69 1009.4
20260509195556 22 227 1.6 8.0 0.00 0.00 0.00 69 1009.4
20260509195040 22 36 0.0 12.9 0.00 0.00 0.00 69 1009.4
20260509194545 22 78 1.6 12.9 0.00 0.00 0.00 68 1009.4
20260509194028 22 305 3.2 11.3 0.00 0.00 0.00 67 1009.5
20260509193552 22 225 3.2 12.9 0.00 0.00 0.00 67 1009.5
20260509193036 22 336 1.6 12.9 0.00 0.00 0.00 68 1009.6
20260509192601 22 254 1.6 11.3 0.00 0.00 0.00 67 1009.6
20260509192023 22 220 0.0 6.4 0.00 0.00 0.00 70 1009.7
20260509191528 22 134 1.6 9.7 0.00 0.00 0.00 68 1009.7
20260509191054 22 116 0.0 9.7 0.00 0.00 0.00 68 1009.7
20260509190537 22 236 1.6 8.0 0.00 0.00 0.00 67 1009.6
20260509190041 22 99 0.0 8.0 0.00 0.00 0.00 69 1009.6
20260509185525 22 160 0.0 8.0 0.00 0.00 0.00 69 1009.6
20260509185032 21 259 1.6 8.0 0.00 0.00 0.00 68 1009.7
20260509184557 22 188 3.2 8.0 0.00 0.00 0.00 67 1009.9
20260509184040 22 36 0.0 6.4 0.00 0.00 0.00 68 1009.9
20260509183524 22 249 1.6 6.4 0.00 0.00 0.00 67 1010.0
20260509183028 22 113 0.0 8.0 0.00 0.00 0.00 66 1010.0
20260509182533 22 317 1.6 8.0 0.00 0.00 0.00 65 1010.0
20260509182057 22 298 0.0 8.0 0.00 0.00 0.00 64 1009.9
20260509181541 22 153 0.0 8.0 0.00 0.00 0.00 64 1010.0
20260509181044 22 5 1.6 6.4 0.00 0.00 0.00 63 1010.0
20260509180547 22 306 0.0 25.7 0.00 0.00 0.00 63 1010.0
20260509180031 22 56 3.2 25.7 0.00 0.00 0.00 61 1010.1
20260509175536 22 335 4.8 12.9 0.00 0.00 0.00 64 1010.1
20260509175041 22 91 4.8 14.5 0.00 0.00 0.00 64 1010.1
20260509174526 22 238 1.6 8.0 0.00 0.00 0.00 64 1010.3
20260509174034 22 116 1.6 9.7 0.00 0.00 0.00 65 1010.3
20260509173538 22 122 1.6 9.7 0.00 0.00 0.00 64 1010.4
20260509173102 22 147 1.6 8.0 0.00 0.00 0.00 64 1010.5
20260509172545 22 43 1.6 8.0 0.00 0.00 0.00 62 1010.6
20260509172047 22 63 0.0 11.3 0.00 0.00 0.00 63 1010.5
20260509171532 22 248 4.8 11.3 0.00 0.00 0.00 62 1010.6
20260509171035 22 121 1.6 9.7 0.00 0.00 0.00 65 1010.7
20260509170539 22 244 0.0 9.7 0.00 0.00 0.00 65 1010.9
20260509170042 22 202 0.0 6.4 0.00 0.00 0.00 65 1011.0
20260509165526 21 169 0.0 6.4 0.00 0.00 0.00 65 1011.1
20260509165030 21 235 0.0 4.8 0.00 0.00 0.00 64 1011.2
20260509164554 22 259 1.6 11.3 0.00 0.00 0.00 64 1011.4
20260509164036 22 221 1.6 11.3 0.00 0.00 0.00 63 1011.4
20260509163541 22 205 1.6 8.0 0.00 0.00 0.00 63 1011.4
20260509163029 22 251 3.2 14.5 0.00 0.00 0.00 63 1011.4